Location: West Cummington
(42.4920°N, 72.9680°W)
Time: 06:49:23
(UTC-04:00)

ATLAS 2AS CENTAUR R/B - Visible Passes

Search period start: 31 August 2015 00:00
Search period end: 10 September 2015 00:00
Orbit: 911 x 1301 km, 63.7° (Epoch: 28 August)

Date Brightness Start Highest point End Pass type
(mag) Time Alt. Az. Time Alt. Az. Time Alt. Az.
31 Aug 5.2 01:18:49 10° WNW 01:24:10 19° NNW 01:29:32 10° NNE visible
31 Aug 5.5 03:13:45 10° NNW 03:18:37 17° N 03:23:35 10° NE visible
31 Aug 4.8 05:05:11 10° NNW 05:12:25 34° NE 05:19:33 10° E visible
31 Aug 3.5 20:49:03 10° S 20:55:10 32° ESE 21:01:53 10° NE visible
31 Aug 3.3 22:38:26 10° SW 22:45:45 63° NW 22:53:41 10° NNE visible
01 Sep 5.0 00:32:35 10° WNW 00:38:32 23° NNW 00:44:35 10° NNE visible
01 Sep 5.5 02:28:18 10° NNW 02:32:52 16° N 02:37:28 10° NE visible
01 Sep 5.1 04:20:26 10° NNW 04:27:00 26° NNE 04:33:36 10° E visible
01 Sep 4.0 20:06:04 10° SSE 20:10:48 20° ESE 20:16:06 10° ENE visible
01 Sep 2.9 21:53:32 10° SSW 22:00:51 89° NW 22:08:52 10° NE visible
01 Sep 4.7 23:46:32 10° W 23:53:03 29° NNW 23:59:47 10° NNE visible
02 Sep 5.5 01:42:27 10° NW 01:47:04 16° N 01:51:43 10° NNE visible
02 Sep 5.3 03:35:36 10° NNW 03:41:27 21° NNE 03:47:24 10° ENE visible
02 Sep 3.9 05:26:30 10° NNW 05:34:28 55° NE 05:42:10 10° SE visible
02 Sep 2.9 21:09:01 10° SSW 21:16:08 63° ESE 21:23:56 10° NE visible
02 Sep 4.2 23:00:45 10° WSW 23:07:42 38° NW 23:15:01 10° NNE visible
03 Sep 5.4 00:56:17 10° NW 01:01:19 17° NNW 01:06:20 10° NNE visible
03 Sep 5.4 02:50:37 10° NNW 02:55:47 18° NNE 03:01:05 10° NE visible
03 Sep 4.4 04:41:46 10° NNW 04:49:19 40° NE 04:56:43 10° ESE visible
03 Sep 3.2 20:24:57 10° S 20:31:34 41° ESE 20:38:50 10° NE visible
03 Sep 3.7 22:15:17 10° WSW 22:22:31 52° NW 22:30:17 10° NNE visible
04 Sep 5.2 00:10:02 10° WNW 00:15:38 20° NNW 00:21:16 10° NNE visible
04 Sep 5.5 02:05:21 10° NNW 02:10:03 16° N 02:14:50 10° NE visible
04 Sep 4.8 03:57:02 10° NNW 04:04:00 31° NNE 04:10:56 10° E visible
04 Sep 3.1 05:47:55 10° NW 05:56:06 87° WSW 06:03:53 10° SSE visible
04 Sep 3.7 19:41:29 10° SSE 19:47:08 26° ESE 19:53:24 10° NE visible
04 Sep 3.1 21:30:09 10° SW 21:37:30 73° NW 21:45:30 10° NNE visible
04 Sep 4.9 23:23:52 10° W 23:30:04 25° NNW 23:36:23 10° NNE visible
05 Sep 5.5 01:19:44 10° NW 01:24:16 16° N 01:28:51 10° NE visible
05 Sep 5.1 03:12:15 10° NNW 03:18:31 24° NNE 03:24:52 10° E visible
05 Sep 3.5 05:03:06 10° NNW 05:11:13 67° NE 05:19:00 10° SE visible
05 Sep 2.9 20:45:24 10° SSW 20:52:41 79° ESE 21:00:39 10° NE visible
05 Sep 4.6 22:37:55 10° W 22:44:37 32° NW 22:51:37 10° NNE visible
06 Sep 5.5 00:33:44 10° NW 00:38:29 16° N 00:43:15 10° NNE visible
06 Sep 5.3 02:27:22 10° NNW 02:32:56 20° NNE 02:38:37 10° ENE visible
06 Sep 4.0 04:18:20 10° NNW 04:26:10 48° NE 04:33:45 10° ESE visible
06 Sep 3.1 20:01:04 10° S 20:08:02 53° ESE 20:15:39 10° NE visible
06 Sep 4.1 21:52:15 10° WSW 21:59:20 43° NW 22:06:52 10° NNE visible
06 Sep 5.3 23:47:31 10° WNW 23:52:46 18° NNW 23:58:01 10° NNE visible
07 Sep 5.4 01:42:16 10° NNW 01:47:14 17° NNE 01:52:18 10° NE visible
07 Sep 4.5 03:33:36 10° NNW 03:40:56 36° NE 03:48:10 10° ESE visible
07 Sep 3.0 05:24:35 10° NW 05:32:41 71° WSW 05:40:21 10° SSE visible
07 Sep 3.5 21:06:55 10° SW 21:14:13 59° NW 21:22:07 10° NNE visible
07 Sep 5.1 23:01:17 10° WNW 23:07:07 22° NNW 23:13:02 10° NNE visible
08 Sep 5.5 00:56:53 10° NNW 01:01:28 16° N 01:06:08 10° NE visible
08 Sep 4.9 02:48:52 10° NNW 02:55:33 28° NNE 03:02:16 10° E visible
08 Sep 3.1 04:39:43 10° NW 04:47:54 82° NE 04:55:42 10° SE visible
08 Sep 3.1 20:21:56 10° SW 20:29:17 84° NW 20:37:18 10° NE visible
08 Sep 4.8 22:15:11 10° W 22:21:36 27° NNW 22:28:12 10° NNE visible
09 Sep 5.5 00:11:06 10° NW 00:15:41 16° N 00:20:17 10° NNE visible
09 Sep 5.1 02:04:03 10° NNW 02:10:02 22° NNE 02:16:06 10° ENE visible
09 Sep 3.6 03:54:56 10° NNW 04:02:57 59° NE 04:10:40 10° SE visible
09 Sep 3.5 05:46:30 10° NW 05:53:46 37° WSW 06:00:33 10° S visible
09 Sep 3.0 19:37:21 10° SSW 19:44:32 68° ESE 19:52:24 10° NE visible
09 Sep 4.5 21:29:20 10° WSW 21:36:13 36° NW 21:43:27 10° NNE visible
09 Sep 5.4 23:24:59 10° NW 23:29:55 17° N 23:34:51 10° NNE visible
